Flag for Finland Weather past 2 weeks in Oulu, Finland

Now
36 °F

Mostly cloudy.


Feels Like: 36 °F
Forecast: 26 / 31 °F
Wind: 2 mph from North

Location: Oulu Airport

Current Time: Mar 4, 2015 at 5:52:54 PM

Latest Report: Mar 4, 2015 at 5:20 PM


Visibility: N/A

Pressure: 29.68 "Hg

Humidity: 93%

Dew point: 34 °F

Location of OuluLocation

Historic Weather in Oulu — Graph

°F

Oulu temperature yesterday

Maximum temperature yesterday: 36 °F (at 11:50 AM)
Minimum temperature yesterday: 34 °F (at 12:20 AM)
Average temperature yesterday: 34 °F

Past Weeks' High & Low Weather Summary

 TemperatureHumidityPressure
High43 °F (Feb 19, 11:20 PM)100% (Feb 19, 3:20 AM)30.07 "Hg (Feb 19, 3:20 AM)
Low27 °F (Feb 18, 7:50 PM)61% (Mar 1, 2:20 PM)29.03 "Hg (Feb 22, 1:50 PM)
Average34 °F85%29.56 "Hg
* Reported Feb 17 4:20 PM — Mar 4 4:50 PM, Oulu, Weather by CustomWeather, © 2015

Note: Actual official high and low records may vary slightly from our data, if they occured in-between our weather recording intervals... More about our weather records

Advertising

Oulu weather history for previous 24 hours

 ConditionsComfort  
Time TempWeatherWind HumidityBarometerVisibility
4:50 PM
Wed, Mar 4
36 °FMore clouds than sun.2 mph93%29.68 "HgN/A
4:20 PM36 °FMore clouds than sun.2 mph93%29.68 "HgN/A
3:50 PM36 °FMostly cloudy.2 mph93%29.68 "HgN/A
3:20 PM36 °FLight rain. Mostly cloudy.5 mph93%29.65 "HgN/A
2:50 PM36 °FLight rain. Mostly cloudy.5 mph93%29.65 "HgN/A
2:20 PM36 °FLight rain. Mostly cloudy.7 mph93%29.65 "HgN/A
1:50 PM36 °FMostly cloudy.8 mph93%29.65 "HgN/A
1:20 PM36 °FLight rain. Mostly cloudy.8 mph93%29.65 "HgN/A
12:50 PM36 °FLight rain. Cloudy.8 mph93%29.62 "HgN/A
12:20 PM34 °FLight rain. Mostly cloudy.9 mph100%29.62 "HgN/A
11:50 AM34 °FMostly cloudy.8 mph93%29.62 "HgN/A
11:20 AM34 °FLight rain. Cloudy.7 mph93%29.62 "HgN/A
10:50 AM34 °FLight rain. Cloudy.7 mph93%29.62 "HgN/A
10:20 AM34 °FLight snow. Cloudy.7 mph93%29.62 "HgN/A
9:50 AM34 °FLight snow. Cloudy.6 mph93%29.62 "HgN/A
9:20 AM34 °FLight snow. More clouds than sun.7 mph93%29.59 "HgN/A
8:50 AM34 °FLight rain. Cloudy.6 mph93%29.59 "Hg6 mi
8:20 AM34 °FLight snow. Mostly cloudy.6 mph93%29.59 "HgN/A
7:50 AM32 °FLight snow. Cloudy.7 mph100%29.59 "HgN/A
7:20 AM32 °FLight snow. Mostly cloudy.8 mph100%29.59 "Hg4 mi
6:50 AM32 °FLight snow. Mostly cloudy.8 mph100%29.59 "Hg5 mi
6:20 AM34 °FLight rain. Mostly cloudy.7 mph93%29.59 "Hg5 mi
5:50 AM34 °FLight snow. Low clouds.7 mph93%29.59 "HgN/A
5:20 AM32 °FLight snow. Mostly cloudy.6 mph100%29.59 "Hg4 mi
4:50 AM32 °FLight snow. Mostly cloudy.5 mph100%29.59 "Hg4 mi
4:20 AM32 °FLight snow. Mostly cloudy.5 mph100%29.59 "Hg4 mi
3:50 AM32 °FLight snow. Overcast.5 mph100%29.59 "Hg4 mi
3:20 AM34 °FLight rain. Mostly cloudy.5 mph93%29.59 "HgN/A
2:50 AM34 °FLight rain. Overcast.6 mph93%29.59 "HgN/A
2:20 AM34 °FLight rain. Mostly cloudy.6 mph93%29.62 "HgN/A
1:50 AM34 °FOvercast.5 mph93%29.62 "HgN/A
1:20 AM34 °FOvercast.6 mph100%29.62 "HgN/A
12:50 AM34 °FMostly cloudy.3 mph100%29.62 "HgN/A
12:20 AM34 °FMostly cloudy.5 mph100%29.62 "HgN/A
11:20 PM
Tue, Mar 3
34 °FLow clouds.6 mph93%29.62 "HgN/A
10:50 PM34 °FOvercast.5 mph100%29.62 "HgN/A
10:20 PM34 °FOvercast.7 mph93%29.65 "HgN/A
9:50 PM34 °FOvercast.8 mph93%29.65 "HgN/A
9:20 PM34 °FMostly cloudy.7 mph93%29.62 "HgN/A
8:50 PM34 °FOvercast.8 mph100%29.62 "HgN/A
8:20 PM34 °FMostly cloudy.7 mph93%29.62 "HgN/A
7:50 PM34 °FMostly cloudy.8 mph93%29.62 "HgN/A
7:20 PM34 °FMostly cloudy.7 mph93%29.62 "HgN/A
6:50 PM34 °FLow clouds.7 mph93%29.62 "HgN/A
6:20 PM34 °FOvercast.6 mph93%29.62 "HgN/A
5:50 PM34 °FOvercast.5 mph100%29.62 "HgN/A
5:20 PM36 °FMostly cloudy.6 mph87%29.62 "HgN/A
Weather by CustomWeather, © 2015

See weather overviewHow to use our weather pages